Time,TemperatureF,DewpointF,PressureIn,WindDirection,WindDirectionDegrees,WindSpeedMPH,WindSpeedGustMPH,Humidity,HourlyPrecipIn,Conditions,Clouds,dailyrainin,SoftwareType,DateUTC
2013-03-20 00:03:00,36.7,24.0,30.14,North,351,0.0,2.0,60,0.00,,,0.00,weatherlink.com 1.10,2013-03-20 04:03:00,
2013-03-20 00:18:00,36.9,22.0,30.13,NE,44,0.0,2.0,55,0.00,,,0.00,weatherlink.com 1.10,2013-03-20 04:18:00,
2013-03-20 00:33:00,36.9,24.0,30.14,NW,324,0.0,2.0,59,0.00,,,0.00,weatherlink.com 1.10,2013-03-20 04:33:00,
2013-03-20 00:48:00,36.6,23.0,30.13,North,358,0.0,2.0,59,0.00,,,0.00,weatherlink.com 1.10,2013-03-20 04:48:00,
2013-03-20 01:03:00,36.1,24.0,30.14,NW,315,1.0,2.0,62,0.00,,,0.00,weatherlink.com 1.10,2013-03-20 05:03:00,
2013-03-20 01:18:00,34.8,20.0,30.13,SSW,211,0.0,1.0,54,0.00,,,0.00,weatherlink.com 1.10,2013-03-20 05:18:00,
2013-03-20 01:33:00,34.1,21.0,30.13,SW,217,0.0,0.0,59,0.00,,,0.00,weatherlink.com 1.10,2013-03-20 05:33:00,
2013-03-20 01:48:00,35.2,26.0,30.12,NNW,345,1.0,2.0,70,0.00,,,0.00,weatherlink.com 1.10,2013-03-20 05:48:00,
2013-03-20 02:03:00,35.2,27.0,30.12,NNW,342,2.0,3.0,72,0.00,,,0.00,weatherlink.com 1.10,2013-03-20 06:03:00,
2013-03-20 02:18:00,34.9,26.0,30.12,North,5,2.0,3.0,71,0.00,,,0.00,weatherlink.com 1.10,2013-03-20 06:18:00,
2013-03-20 02:33:00,34.4,27.0,30.12,NNE,21,4.0,5.0,74,0.00,,,0.00,weatherlink.com 1.10,2013-03-20 06:33:00,
2013-03-20 02:48:00,33.9,26.0,30.12,NNE,14,2.0,4.0,74,0.00,,,0.00,weatherlink.com 1.10,2013-03-20 06:48:00,
2013-03-20 03:03:00,33.3,26.0,30.12,NNE,23,3.0,4.0,75,0.00,,,0.00,weatherlink.com 1.10,2013-03-20 07:03:00,
2013-03-20 03:18:00,33.1,26.0,30.11,NNE,33,5.0,5.0,74,0.00,,,0.00,weatherlink.com 1.10,2013-03-20 07:18:00,
2013-03-20 03:33:00,32.9,26.0,30.11,NNE,23,6.0,6.0,75,0.00,,,0.00,weatherlink.com 1.10,2013-03-20 07:33:00,
2013-03-20 03:48:00,32.9,25.0,30.11,North,5,4.0,5.0,74,0.00,,,0.00,weatherlink.com 1.10,2013-03-20 07:48:00,
2013-03-20 04:03:00,33.4,25.0,30.10,NNE,32,4.0,6.0,72,0.00,,,0.00,weatherlink.com 1.10,2013-03-20 08:03:00,
2013-03-20 04:18:00,33.6,25.0,30.09,NNW,346,3.0,5.0,70,0.00,,,0.00,weatherlink.com 1.10,2013-03-20 08:18:00,
2013-03-20 04:33:00,33.3,26.0,30.09,NNE,20,4.0,5.0,75,0.00,,,0.00,weatherlink.com 1.10,2013-03-20 08:33:00,
2013-03-20 04:48:00,33.1,25.0,30.09,North,354,3.0,6.0,73,0.00,,,0.00,weatherlink.com 1.10,2013-03-20 08:48:00,
2013-03-20 05:03:00,33.4,24.0,30.09,NNW,340,4.0,7.0,68,0.00,,,0.00,weatherlink.com 1.10,2013-03-20 09:03:00,
2013-03-20 05:18:00,34.2,21.0,30.10,North,353,5.0,7.0,60,0.00,,,0.00,weatherlink.com 1.10,2013-03-20 09:18:00,
2013-03-20 05:33:00,34.3,21.0,30.10,NNW,346,8.0,8.0,58,0.00,,,0.00,weatherlink.com 1.10,2013-03-20 09:33:00,
2013-03-20 05:49:00,34.6,20.0,30.10,NNW,340,4.0,10.0,55,0.00,,,0.00,weatherlink.com 1.10,2013-03-20 09:49:00,
2013-03-20 06:04:00,34.5,21.0,30.10,North,353,5.0,6.0,57,0.00,,,0.00,weatherlink.com 1.10,2013-03-20 10:04:00,
2013-03-20 06:19:00,33.5,21.0,30.11,NNW,340,0.0,6.0,60,0.00,,,0.00,weatherlink.com 1.10,2013-03-20 10:19:00,
2013-03-20 06:34:00,30.8,22.0,30.12,SSE,148,3.0,6.0,69,0.00,,,0.00,weatherlink.com 1.10,2013-03-20 10:34:00,
2013-03-20 06:49:00,29.6,21.0,30.12,SSE,159,3.0,4.0,70,0.00,,,0.00,weatherlink.com 1.10,2013-03-20 10:49:00,
2013-03-20 07:04:00,29.2,20.0,30.12,SE,134,1.0,4.0,69,0.00,,,0.00,weatherlink.com 1.10,2013-03-20 11:04:00,
2013-03-20 07:19:00,29.0,20.0,30.13,SSE,163,1.0,4.0,70,0.00,,,0.00,weatherlink.com 1.10,2013-03-20 11:19:00,
2013-03-20 07:34:00,28.6,20.0,30.13,NE,35,0.0,1.0,71,0.00,,,0.00,weatherlink.com 1.10,2013-03-20 11:34:00,
2013-03-20 07:49:00,28.7,18.0,30.14,SSW,211,0.0,1.0,65,0.00,,,0.00,weatherlink.com 1.10,2013-03-20 11:49:00,
2013-03-20 08:04:00,29.1,22.0,30.16,North,353,1.0,2.0,74,0.00,,,0.00,weatherlink.com 1.10,2013-03-20 12:04:00,
2013-03-20 08:19:00,29.9,22.0,30.16,NE,40,0.0,2.0,72,0.00,,,0.00,weatherlink.com 1.10,2013-03-20 12:19:00,
2013-03-20 08:34:00,30.1,21.0,30.16,NE,40,0.0,0.0,69,0.00,,,0.00,weatherlink.com 1.10,2013-03-20 12:34:00,
2013-03-20 08:49:00,30.8,23.0,30.16,WSW,257,0.0,1.0,73,0.00,,,0.00,weatherlink.com 1.10,2013-03-20 12:49:00,
2013-03-20 09:04:00,33.0,23.0,30.16,WSW,256,0.0,0.0,66,0.00,,,0.00,weatherlink.com 1.10,2013-03-20 13:04:00,
2013-03-20 09:19:00,34.7,21.0,30.16,NW,322,2.0,4.0,58,0.00,,,0.00,weatherlink.com 1.10,2013-03-20 13:19:00,
2013-03-20 09:34:00,36.0,18.0,30.16,NNW,345,4.0,6.0,48,0.00,,,0.00,weatherlink.com 1.10,2013-03-20 13:34:00,
2013-03-20 09:49:00,36.4,15.0,30.16,NNE,19,7.0,9.0,41,0.00,,,0.00,weatherlink.com 1.10,2013-03-20 13:49:00,
2013-03-20 10:04:00,36.8,17.0,30.16,NNW,333,3.0,7.0,44,0.00,,,0.00,weatherlink.com 1.10,2013-03-20 14:04:00,
2013-03-20 10:19:00,37.1,15.0,30.16,North,355,5.0,8.0,41,0.00,,,0.00,weatherlink.com 1.10,2013-03-20 14:19:00,
2013-03-20 10:34:00,37.9,16.0,30.16,NE,49,2.0,4.0,41,0.00,,,0.00,weatherlink.com 1.10,2013-03-20 14:34:00,
2013-03-20 10:49:00,38.0,12.0,30.15,NW,325,5.0,6.0,35,0.00,,,0.00,weatherlink.com 1.10,2013-03-20 14:49:00,
2013-03-20 11:04:00,39.1,14.0,30.15,North,349,1.0,5.0,36,0.00,,,0.00,weatherlink.com 1.10,2013-03-20 15:04:00,
2013-03-20 11:19:00,40.3,12.0,30.15,NNW,340,1.0,7.0,32,0.00,,,0.00,weatherlink.com 1.10,2013-03-20 15:19:00,
2013-03-20 11:34:00,41.0,9.0,30.15,NNE,30,4.0,6.0,27,0.00,,,0.00,weatherlink.com 1.10,2013-03-20 15:34:00,
2013-03-20 11:50:00,43.8,10.0,30.13,NE,39,1.0,3.0,25,0.00,,,0.00,weatherlink.com 1.10,2013-03-20 15:50:00,
2013-03-20 12:04:00,45.2,12.0,30.12,West,276,2.0,3.0,26,0.00,,,0.00,weatherlink.com 1.10,2013-03-20 16:04:00,
2013-03-20 12:19:00,45.5,11.0,30.11,NNE,29,1.0,5.0,25,0.00,,,0.00,weatherlink.com 1.10,2013-03-20 16:19:00,
2013-03-20 12:34:00,46.2,13.0,30.10,NNW,328,6.0,9.0,26,0.00,,,0.00,weatherlink.com 1.10,2013-03-20 16:34:00,
2013-03-20 12:50:00,46.3,13.0,30.09,SW,225,4.0,6.0,26,0.00,,,0.00,weatherlink.com 1.10,2013-03-20 16:50:00,
2013-03-20 13:05:00,47.6,11.0,30.08,South,184,1.0,5.0,23,0.00,,,0.00,weatherlink.com 1.10,2013-03-20 17:05:00,
2013-03-20 13:20:00,46.9,13.0,30.06,NW,318,1.0,9.0,26,0.00,,,0.00,weatherlink.com 1.10,2013-03-20 17:20:00,
2013-03-20 13:35:00,48.9,12.0,30.05,SSE,155,0.0,7.0,23,0.00,,,0.00,weatherlink.com 1.10,2013-03-20 17:35:00,
2013-03-20 13:50:00,48.5,12.0,30.04,NNE,19,7.0,11.0,23,0.00,,,0.00,weatherlink.com 1.10,2013-03-20 17:50:00,
2013-03-20 14:05:00,49.5,14.0,30.02,North,8,6.0,8.0,24,0.00,,,0.00,weatherlink.com 1.10,2013-03-20 18:05:00,
2013-03-20 14:20:00,49.3,12.0,30.00,NW,323,10.0,16.0,22,0.00,,,0.00,weatherlink.com 1.10,2013-03-20 18:20:00,
2013-03-20 14:35:00,51.8,14.0,29.98,North,354,9.0,9.0,22,0.00,,,0.00,weatherlink.com 1.10,2013-03-20 18:35:00,
2013-03-20 14:50:00,51.9,11.0,29.97,NE,41,6.0,11.0,19,0.00,,,0.00,weatherlink.com 1.10,2013-03-20 18:50:00,
2013-03-20 15:05:00,50.9,12.0,29.95,North,6,14.0,16.0,21,0.00,,,0.00,weatherlink.com 1.10,2013-03-20 19:05:00,
2013-03-20 15:20:00,50.8,11.0,29.94,NNE,23,8.0,15.0,20,0.00,,,0.00,weatherlink.com 1.10,2013-03-20 19:20:00,
2013-03-20 15:35:00,51.2,12.0,29.92,NNW,346,8.0,17.0,21,0.00,,,0.00,weatherlink.com 1.10,2013-03-20 19:35:00,
2013-03-20 15:50:00,52.0,13.0,29.92,NNW,348,19.0,20.0,21,0.00,,,0.00,weatherlink.com 1.10,2013-03-20 19:50:00,
2013-03-20 16:05:00,49.8,16.0,29.91,NNE,30,22.0,28.0,26,0.00,,,0.00,weatherlink.com 1.10,2013-03-20 20:05:00,
2013-03-20 16:20:00,48.7,14.0,29.92,NNW,346,10.0,22.0,25,0.00,,,0.00,weatherlink.com 1.10,2013-03-20 20:20:00,
2013-03-20 16:35:00,48.8,15.0,29.91,North,8,18.0,22.0,26,0.00,,,0.00,weatherlink.com 1.10,2013-03-20 20:35:00,
2013-03-20 16:50:00,49.2,13.0,29.91,NNW,335,17.0,22.0,23,0.00,,,0.00,weatherlink.com 1.10,2013-03-20 20:50:00,
2013-03-20 17:05:00,49.3,13.0,29.91,NNW,328,6.0,19.0,23,0.00,,,0.00,weatherlink.com 1.10,2013-03-20 21:05:00,
2013-03-20 17:20:00,49.8,11.0,29.90,North,9,6.0,19.0,21,0.00,,,0.00,weatherlink.com 1.10,2013-03-20 21:20:00,
2013-03-20 17:35:00,49.4,11.0,29.89,North,4,8.0,22.0,21,0.00,,,0.00,weatherlink.com 1.10,2013-03-20 21:35:00,
2013-03-20 17:50:00,49.9,11.0,29.89,North,8,8.0,24.0,21,0.00,,,0.00,weatherlink.com 1.10,2013-03-20 21:50:00,
2013-03-20 18:05:00,49.5,12.0,29.89,NNW,340,3.0,24.0,22,0.00,,,0.00,weatherlink.com 1.10,2013-03-20 22:05:00,
2013-03-20 18:20:00,49.1,12.0,29.88,NNE,20,20.0,22.0,22,0.00,,,0.00,weatherlink.com 1.10,2013-03-20 22:20:00,
2013-03-20 18:35:00,48.2,14.0,29.88,North,4,16.0,20.0,25,0.00,,,0.00,weatherlink.com 1.10,2013-03-20 22:35:00,
2013-03-20 18:50:00,47.3,14.0,29.88,North,351,4.0,13.0,26,0.00,,,0.00,weatherlink.com 1.10,2013-03-20 22:50:00,
2013-03-20 19:05:00,47.0,15.0,29.88,North,10,8.0,11.0,28,0.00,,,0.00,weatherlink.com 1.10,2013-03-20 23:05:00,
2013-03-20 19:20:00,46.5,16.0,29.89,North,359,10.0,14.0,29,0.00,,,0.00,weatherlink.com 1.10,2013-03-20 23:20:00,
2013-03-20 19:37:00,46.0,16.0,29.89,North,6,5.0,9.0,30,0.00,,,0.00,weatherlink.com 1.10,2013-03-20 23:37:00,
2013-03-20 19:50:00,45.7,14.0,29.90,NNW,328,9.0,21.0,28,0.00,,,0.00,weatherlink.com 1.10,2013-03-20 23:50:00,
2013-03-20 20:05:00,45.4,15.0,29.90,NW,321,4.0,16.0,29,0.00,,,0.00,weatherlink.com 1.10,2013-03-21 00:05:00,
2013-03-20 20:20:00,44.8,18.0,29.89,North,356,5.0,6.0,34,0.00,,,0.00,weatherlink.com 1.10,2013-03-21 00:20:00,
2013-03-20 20:35:00,43.3,20.0,29.90,NW,323,2.0,17.0,39,0.00,,,0.00,weatherlink.com 1.10,2013-03-21 00:35:00,
2013-03-20 20:50:00,42.9,20.0,29.89,NNW,333,3.0,5.0,40,0.00,,,0.00,weatherlink.com 1.10,2013-03-21 00:50:00,
2013-03-20 21:05:00,42.9,21.0,29.89,NNW,332,6.0,29.0,41,0.00,,,0.00,weatherlink.com 1.10,2013-03-21 01:05:00,
2013-03-20 21:20:00,42.4,22.0,29.89,NW,326,0.0,9.0,44,0.00,,,0.00,weatherlink.com 1.10,2013-03-21 01:20:00,
2013-03-20 21:35:00,41.6,24.0,29.91,North,5,16.0,27.0,50,0.00,,,0.00,weatherlink.com 1.10,2013-03-21 01:35:00,
2013-03-20 21:50:00,39.5,26.0,29.92,North,6,15.0,21.0,60,0.00,,,0.00,weatherlink.com 1.10,2013-03-21 01:50:00,
2013-03-20 22:06:00,37.1,30.0,29.94,NNE,25,8.0,20.0,74,0.00,,,0.00,weatherlink.com 1.10,2013-03-21 02:06:00,
2013-03-20 22:20:00,36.0,31.0,29.94,NNE,24,10.0,14.0,81,0.00,,,0.00,weatherlink.com 1.10,2013-03-21 02:20:00,
2013-03-20 22:36:00,34.6,31.0,29.94,NNE,22,15.0,22.0,87,0.00,,,0.00,weatherlink.com 1.10,2013-03-21 02:36:00,
2013-03-20 22:51:00,33.3,31.0,29.95,North,6,11.0,21.0,90,0.00,,,0.00,weatherlink.com 1.10,2013-03-21 02:51:00,
2013-03-20 23:06:00,32.2,30.0,29.96,North,9,14.0,25.0,92,0.00,,,0.00,weatherlink.com 1.10,2013-03-21 03:06:00,